Temp
-13 -13 -13 -13 -13 -13 -13 -13 -13 -13 -13 -13 -13 -13 -12 -12 -12 -12 -12 -12 -12 -12 -12 -12 -12 -12 -12 -12 -12 -12 -12 -12 -12 -12 -12 -12 -12 -12 -12 -12 -13 -13 -13 -13 -13 -13 -13 -13 -13 -13 -13 -12 -12 -12 -12 -12 -12 -12 -12 -12 -12 -12 -12
-13 -13 -13 -13 -13 -13 -13 -13 -13 -13 -13 -13 -13 -13 -13 -13 -12 -12 -12 -12 -12 -12 -12 -12 -12 -12 -12 -12 -12 -12 -12 -12 -12 -12 -12 -12 -12 -12 -12 -12 -12 -12 -13 -13 -13 -13 -13 -13 -13 -13 -13 -13 -12 -12 -12 -12 -12 -12 -12 -12 -12 -12 -12
-14 -14 -13 -13 -13 -13 -13 -13 -13 -13 -13 -13 -13 -13 -13 -13 -13 -13 -13 -12 -12 -12 -12 -12 -12 -12 -12 -12 -12 -12 -12 -12 -12 -12 -12 -12 -12 -12 -12 -12 -12 -12 -12 -13 -13 -13 -13 -12 -13 -13 -13 -13 -13 -12 -12 -12 -12 -12 -12 -12 -12 -12 -12
-14 -14 -14 -14 -14 -14 -13 -13 -13 -13 -13 -13 -13 -13 -13 -13 -13 -13 -13 -13 -13 -13 -12 -12 -12 -12 -12 -12 -12 -12 -12 -12 -12 -12 -12 -12 -12 -12 -12 -12 -12 -12 -12 -12 -12 -13 -12 -12 -13 -13 -13 -13 -13 -12 -12 -12 -13 -12 -12 -12 -12 -12 -12
-14 -14 -14 -14 -14 -14 -14 -14 -14 -14 -14 -14 -13 -13 -13 -13 -13 -13 -13 -13 -13 -13 -13 -13 -13 -13 -13 -13 -12 -12 -12 -12 -12 -12 -12 -12 -12 -12 -12 -12 -12 -12 -12 -12 -12 -12 -12 -12 -13 -13 -13 -13 -12 -12 -12 -13 -13 -13 -13 -13 -13 -12 -12
-15 -15 -14 -14 -14 -14 -14 -14 -14 -14 -14 -14 -14 -14 -14 -14 -14 -14 -14 -14 -14 -13 -13 -13 -13 -13 -13 -13 -13 -13 -12 -12 -12 -12 -12 -12 -12 -12 -12 -12 -12 -12 -12 -12 -12 -12 -12 -12 -12 -12 -13 -13 -12 -12 -12 -12 -12 -12 -12 -12 -12 -12 -12
-15 -15 -15 -15 -14 -14 -14 -14 -14 -14 -14 -14 -14 -14 -14 -14 -14 -14 -14 -14 -14 -14 -14 -13 -13 -13 -13 -13 -13 -13 -13 -12 -12 -12 -12 -12 -12 -12 -12 -12 -12 -12 -12 -12 -12 -12 -12 -12 -12 -12 -12 -12 -12 -12 -12 -12 -12 -12 -12 -12 -12 -12 -12
-15 -15 -15 -15 -15 -15 -15 -14 -14 -14 -14 -14 -14 -14 -14 -14 -14 -14 -15 -15 -15 -14 -14 -14 -14 -14 -13 -13 -13 -13 -13 -13 -13 -12 -12 -12 -12 -12 -12 -12 -12 -12 -12 -12 -12 -12 -12 -12 -12 -12 -12 -12 -12 -12 -12 -12 -12 -12 -12 -12 -12 -12 -12
-16 -16 -16 -15 -15 -15 -15 -15 -15 -15 -15 -15 -15 -15 -15 -15 -14 -14 -14 -14 -14 -15 -15 -14 -14 -14 -14 -14 -13 -13 -13 -13 -13 -13 -12 -12 -12 -12 -12 -12 -12 -12 -12 -12 -12 -12 -12 -12 -12 -12 -12 -11 -11 -11 -11 -12 -12 -12 -12 -12 -12 -12 -12
-16 -16 -16 -16 -16 -15 -15 -15 -15 -15 -15 -15 -15 -15 -15 -15 -15 -15 -14 -14 -14 -14 -14 -14 -14 -15 -14 -14 -14 -14 -13 -13 -13 -13 -12 -12 -12 -12 -12 -12 -12 -12 -12 -12 -12 -12 -12 -12 -12 -12 -12 -12 -11 -11 -11 -11 -11 -12 -12 -12 -12 -12 -12
-16 -16 -16 -16 -16 -16 -16 -15 -15 -15 -15 -15 -15 -15 -15 -15 -15 -15 -15 -15 -14 -14 -14 -14 -14 -14 -14 -14 -14 -14 -14 -14 -14 -13 -13 -12 -12 -12 -12 -12 -12 -12 -12 -12 -12 -12 -12 -12 -12 -12 -12 -12 -11 -11 -11 -11 -11 -12 -12 -12 -12 -12 -12
-16 -16 -16 -16 -16 -16 -16 -16 -16 -16 -15 -15 -15 -15 -15 -15 -15 -15 -15 -15 -15 -15 -15 -15 -15 -15 -15 -15 -14 -14 -14 -14 -14 -14 -13 -13 -13 -12 -12 -12 -12 -12 -12 -12 -12 -12 -12 -12 -12 -12 -12 -12 -11 -11 -11 -11 -11 -11 -12 -12 -12 -12 -12
-17 -16 -16 -16 -16 -16 -16 -16 -16 -16 -16 -16 -16 -16 -15 -15 -15 -15 -15 -15 -15 -15 -15 -15 -15 -15 -15 -15 -15 -15 -14 -14 -14 -14 -14 -14 -13 -13 -13 -12 -12 -12 -12 -12 -12 -12 -12 -12 -12 -12 -12 -12 -12 -12 -11 -11 -11 -11 -12 -12 -12 -12 -12
-17 -17 -17 -17 -16 -16 -16 -16 -16 -16 -16 -16 -16 -16 -16 -16 -16 -16 -15 -15 -15 -15 -15 -15 -15 -15 -15 -15 -15 -15 -15 -14 -14 -14 -14 -14 -14 -13 -13 -13 -13 -12 -12 -12 -12 -12 -12 -12 -12 -12 -12 -12 -12 -12 -12 -12 -11 -11 -12 -12 -12 -12 -13
-17 -17 -17 -17 -17 -17 -17 -17 -17 -17 -17 -17 -17 -16 -16 -16 -16 -16 -16 -16 -16 -16 -16 -15 -15 -15 -15 -15 -15 -15 -15 -14 -14 -14 -14 -14 -14 -14 -13 -13 -13 -13 -12 -12 -12 -12 -12 -12 -12 -12 -12 -12 -12 -12 -12 -12 -12 -12 -12 -12 -13 -13 -13
-17 -17 -17 -17 -17 -17 -17 -17 -17 -17 -17 -17 -17 -17 -17 -17 -17 -17 -17 -16 -16 -16 -16 -16 -16 -16 -16 -15 -15 -15 -15 -15 -14 -14 -14 -14 -14 -14 -14 -13 -13 -13 -13 -13 -12 -13 -13 -13 -13 -12 -12 -12 -12 -13 -13 -13 -12 -12 -12 -13 -13 -12 -13
-18 -18 -18 -17 -17 -17 -17 -18 -18 -17 -17 -17 -17 -17 -17 -17 -17 -17 -17 -17 -17 -17 -16 -16 -16 -16 -16 -16 -16 -16 -15 -15 -15 -15 -15 -15 -14 -14 -14 -14 -14 -14 -13 -13 -13 -13 -13 -13 -13 -13 -13 -13 -13 -13 -13 -13 -13 -12 -12 -13 -13 -13 -13
-18 -18 -18 -18 -18 -18 -18 -18 -18 -18 -18 -18 -18 -18 -18 -18 -18 -17 -17 -17 -17 -17 -17 -17 -17 -17 -17 -16 -16 -16 -16 -16 -15 -15 -15 -15 -15 -15 -14 -14 -14 -14 -14 -13 -14 -14 -14 -13 -13 -13 -13 -14 -13 -13 -13 -13 -13 -13 -13 -13 -13 -13 -13
-18 -18 -18 -18 -18 -18 -18 -18 -18 -18 -18 -18 -18 -18 -18 -18 -18 -18 -18 -18 -18 -18 -17 -17 -17 -17 -17 -17 -17 -17 -16 -16 -16 -16 -16 -16 -15 -15 -15 -15 -15 -15 -14 -14 -14 -14 -14 -14 -14 -14 -14 -14 -14 -14 -14 -14 -13 -13 -13 -13 -13 -13 -13
-19 -18 -18 -18 -18 -18 -18 -18 -18 -18 -18 -18 -18 -18 -18 -18 -18 -18 -18 -18 -18 -18 -18 -18 -18 -18 -18 -18 -17 -17 -17 -17 -16 -16 -16 -16 -16 -16 -15 -15 -15 -15 -15 -15 -15 -14 -14 -14 -14 -14 -14 -15 -15 -15 -14 -14 -14 -14 -14 -13 -13 -14 -13
-19 -19 -19 -18 -18 -18 -18 -18 -18 -18 -18 -18 -18 -18 -18 -18 -18 -18 -18 -18 -18 -18 -18 -18 -18 -18 -18 -18 -18 -18 -17 -17 -17 -17 -17 -16 -16 -16 -16 -16 -16 -16 -16 -16 -15 -15 -15 -15 -15 -15 -15 -15 -15 -15 -15 -15 -14 -14 -14 -14 -14 -14 -14
-19 -19 -19 -19 -19 -19 -19 -19 -19 -19 -18 -19 -18 -18 -18 -18 -19 -19 -19 -19 -19 -19 -19 -19 -19 -18 -18 -18 -18 -18 -18 -18 -17 -17 -17 -17 -17 -17 -17 -17 -17 -17 -17 -16 -16 -16 -16 -16 -15 -15 -15 -15 -15 -15 -16 -15 -15 -15 -15 -14 -14 -14 -14
-19 -19 -19 -19 -19 -19 -19 -19 -19 -19 -19 -19 -19 -19 -19 -19 -19 -19 -19 -19 -19 -19 -19 -19 -19 -19 -18 -18 -18 -18 -18 -18 -18 -18 -18 -18 -17 -17 -17 -17 -17 -17 -17 -17 -17 -17 -16 -16 -16 -16 -15 -15 -15 -16 -16 -16 -16 -15 -15 -15 -15 -15 -15
-19 -20 -19 -19 -19 -19 -19 -19 -19 -19 -19 -19 -19 -19 -19 -19 -19 -19 -19 -19 -19 -19 -19 -19 -19 -19 -19 -18 -18 -18 -18 -18 -18 -18 -18 -18 -18 -18 -18 -18 -18 -18 -18 -18 -18 -17 -17 -17 -17 -16 -16 -16 -16 -16 -16 -16 -16 -16 -16 -15 -15 -15 -15
-20 -20 -20 -20 -20 -19 -19 -19 -19 -19 -19 -19 -19 -19 -19 -19 -19 -19 -19 -19 -19 -19 -19 -19 -19 -19 -19 -18 -18 -18 -18 -18 -18 -18 -18 -18 -18 -18 -18 -18 -18 -18 -18 -18 -18 -18 -18 -18 -17 -17 -17 -16 -16 -16 -16 -16 -16 -16 -16 -16 -16 -15 -15
-20 -20 -20 -20 -20 -20 -20 -20 -19 -19 -19 -19 -19 -19 -19 -19 -19 -19 -19 -19 -19 -19 -19 -19 -19 -19 -19 -19 -18 -18 -18 -18 -18 -18 -18 -18 -18 -18 -18 -18 -18 -18 -18 -19 -19 -19 -18 -18 -18 -18 -17 -17 -17 -16 -16 -16 -16 -16 -16 -16 -16 -16 -16
-21 -20 -20 -20 -20 -20 -20 -20 -20 -19 -19 -19 -19 -19 -19 -19 -19 -19 -19 -19 -19 -19 -19 -19 -19 -19 -19 -19 -18 -18 -18 -18 -18 -18 -18 -18 -18 -18 -18 -18 -18 -19 -19 -19 -19 -19 -19 -19 -19 -18 -18 -18 -17 -17 -17 -16 -16 -16 -17 -17 -16 -16 -16
-21 -20 -20 -20 -20 -20 -20 -20 -20 -20 -19 -20 -19 -19 -19 -19 -19 -19 -19 -19 -19 -19 -19 -19 -19 -19 -19 -19 -19 -18 -18 -18 -18 -18 -18 -18 -19 -19 -19 -19 -19 -19 -19 -19 -19 -19 -19 -19 -19 -19 -18 -18 -18 -18 -17 -17 -17 -17 -17 -17 -17 -16 -17
-20 -20 -20 -20 -20 -20 -20 -20 -20 -20 -20 -20 -20 -19 -19 -19 -19 -19 -19 -19 -19 -19 -19 -19 -19 -19 -19 -19 -19 -19 -19 -19 -19 -19 -19 -19 -19 -19 -19 -19 -19 -19 -19 -19 -19 -19 -19 -19 -19 -19 -19 -18 -18 -18 -18 -18 -17 -17 -17 -17 -17 -17 -17
-20 -20 -20 -20 -20 -20 -20 -20 -20 -20 -20 -20 -20 -19 -19 -19 -19 -19 -19 -19 -19 -19 -19 -19 -19 -19 -19 -19 -19 -19 -19 -19 -19 -19 -19 -19 -19 -19 -19 -19 -19 -19 -19 -19 -19 -19 -19 -19 -19 -19 -19 -19 -19 -18 -18 -18 -18 -18 -17 -17 -17 -17 -17
-21 -21 -21 -20 -20 -20 -20 -20 -20 -20 -20 -20 -20 -20 -20 -20 -20 -20 -20 -19 -19 -19 -19 -19 -19 -19 -19 -19 -19 -19 -19 -20 -20 -20 -20 -20 -20 -20 -20 -20 -20 -20 -20 -19 -19 -19 -19 -19 -19 -19 -19 -19 -19 -18 -18 -19 -19 -18 -18 -18 -17 -17 -17
-21 -21 -21 -21 -20 -20 -20 -20 -20 -20 -20 -20 -20 -20 -20 -20 -20 -20 -20 -20 -20 -19 -19 -19 -19 -19 -19 -19 -20 -20 -20 -20 -20 -20 -20 -20 -20 -20 -20 -20 -20 -20 -20 -20 -20 -20 -20 -19 -19 -19 -19 -19 -19 -19 -19 -19 -19 -19 -18 -18 -18 -17 -17
-21 -21 -21 -21 -20 -20 -20 -21 -20 -20 -20 -20 -20 -20 -20 -20 -20 -20 -20 -20 -20 -19 -19 -19 -19 -19 -20 -20 -20 -20 -20 -20 -20 -20 -20 -20 -20 -20 -20 -20 -20 -20 -20 -20 -20 -20 -20 -19 -19 -19 -19 -19 -19 -19 -19 -19 -19 -19 -19 -18 -18 -18 -17
-21 -21 -21 -21 -21 -21 -21 -21 -20 -20 -20 -20 -20 -20 -20 -20 -20 -20 -20 -20 -20 -19 -19 -19 -19 -20 -20 -20 -20 -20 -20 -20 -20 -20 -20 -20 -20 -20 -20 -20 -20 -20 -20 -20 -20 -20 -19 -19 -19 -19 -19 -19 -19 -19 -19 -19 -19 -19 -19 -19 -18 -18 -18
-22 -22 -21 -21 -21 -21 -21 -21 -21 -21 -21 -20 -20 -20 -20 -20 -20 -20 -20 -20 -19 -20 -20 -20 -20 -20 -20 -20 -20 -20 -20 -20 -20 -20 -20 -20 -20 -19 -19 -19 -20 -20 -20 -20 -19 -19 -19 -19 -19 -19 -19 -19 -19 -19 -19 -19 -19 -19 -19 -19 -19 -18 -18
-22 -22 -21 -21 -21 -21 -21 -21 -21 -21 -21 -21 -21 -20 -20 -20 -20 -20 -20 -20 -20 -20 -20 -20 -20 -20 -20 -20 -20 -20 -20 -20 -20 -20 -20 -19 -19 -19 -19 -20 -20 -19 -19 -19 -19 -19 -19 -19 -19 -19 -19 -19 -19 -19 -19 -19 -19 -19 -19 -19 -19 -18 -18
-22 -22 -22 -22 -21 -21 -21 -21 -21 -21 -21 -21 -21 -20 -20 -20 -20 -20 -20 -20 -20 -20 -20 -20 -20 -20 -20 -20 -20 -20 -20 -20 -20 -20 -20 -19 -19 -19 -19 -20 -19 -19 -19 -19 -19 -19 -19 -19 -19 -19 -19 -19 -19 -19 -18 -18 -19 -19 -19 -19 -19 -18 -18
Height
5757 5758 5758 5758 5759 5759 5759 5759 5759 5760 5761 5762 5763 5763 5764 5765 5765 5766 5767 5769 5770 5771 5772 5772 5773 5773 5774 5774 5775 5776 5777 5778 5779 5781 5783 5784 5785 5787 5787 5787 5789 5789 5790 5792 5793 5794 5797 5799 5800 5801 5802 5803 5804 5807 5808 5809 5811 5812 5813 5814 5815 5816 5817
5754 5754 5755 5756 5756 5756 5756 5756 5756 5757 5758 5758 5759 5760 5761 5762 5762 5763 5764 5765 5766 5768 5769 5769 5770 5771 5771 5771 5772 5772 5772 5773 5774 5776 5778 5779 5781 5782 5783 5783 5784 5785 5786 5788 5789 5791 5793 5794 5795 5796 5797 5798 5800 5802 5804 5805 5806 5808 5809 5811 5812 5813 5814
5751 5751 5751 5752 5753 5754 5754 5754 5754 5754 5754 5755 5756 5757 5757 5758 5759 5760 5761 5762 5763 5764 5765 5766 5767 5767 5768 5768 5769 5769 5769 5769 5770 5771 5773 5774 5776 5777 5779 5779 5780 5781 5782 5783 5785 5787 5787 5788 5790 5791 5792 5793 5795 5797 5798 5800 5801 5803 5805 5807 5808 5810 5810
5748 5748 5748 5749 5750 5750 5751 5751 5752 5752 5751 5751 5752 5752 5754 5755 5756 5757 5758 5759 5760 5761 5762 5762 5763 5764 5765 5765 5765 5766 5766 5766 5767 5767 5768 5769 5770 5772 5774 5775 5776 5777 5778 5780 5781 5782 5782 5783 5784 5786 5786 5787 5789 5791 5793 5794 5796 5798 5800 5802 5804 5806 5807
5745 5745 5746 5746 5746 5747 5748 5748 5749 5749 5749 5749 5749 5749 5750 5751 5752 5753 5754 5755 5757 5758 5759 5759 5760 5761 5761 5762 5762 5762 5763 5763 5763 5764 5765 5765 5766 5767 5769 5770 5772 5773 5774 5775 5777 5777 5777 5778 5779 5780 5781 5782 5783 5786 5788 5789 5791 5793 5795 5797 5799 5800 5802
5741 5742 5743 5743 5743 5743 5744 5745 5746 5747 5747 5747 5747 5747 5748 5748 5749 5749 5750 5752 5753 5754 5755 5756 5757 5757 5758 5758 5759 5759 5759 5760 5760 5760 5761 5762 5762 5763 5764 5765 5767 5768 5769 5770 5772 5772 5772 5773 5773 5774 5777 5777 5777 5781 5782 5782 5785 5787 5789 5792 5794 5794 5795
5738 5739 5740 5740 5740 5740 5741 5741 5742 5743 5744 5745 5745 5745 5746 5746 5746 5747 5747 5748 5749 5750 5751 5752 5753 5754 5754 5754 5755 5755 5756 5756 5756 5757 5757 5758 5758 5759 5760 5761 5762 5764 5764 5765 5766 5766 5767 5767 5768 5770 5772 5771 5772 5775 5776 5777 5779 5781 5784 5787 5788 5788 5790
5735 5736 5736 5737 5737 5737 5738 5738 5739 5740 5741 5742 5742 5743 5743 5743 5744 5744 5744 5745 5745 5746 5747 5748 5749 5750 5750 5750 5751 5751 5752 5752 5752 5753 5754 5754 5755 5755 5756 5757 5758 5759 5759 5759 5760 5761 5762 5762 5763 5764 5765 5766 5766 5768 5770 5771 5772 5775 5779 5782 5781 5783 5785
5732 5732 5733 5734 5734 5734 5735 5736 5736 5737 5738 5738 5739 5740 5740 5740 5741 5741 5741 5742 5743 5743 5744 5745 5745 5746 5746 5747 5747 5747 5747 5748 5748 5749 5750 5750 5751 5751 5752 5752 5753 5753 5754 5754 5755 5755 5756 5757 5758 5759 5759 5759 5760 5762 5764 5765 5766 5770 5774 5775 5775 5777 5778
5728 5729 5730 5731 5731 5731 5732 5732 5733 5734 5734 5735 5736 5736 5737 5737 5737 5738 5738 5738 5739 5740 5740 5741 5741 5742 5742 5742 5743 5743 5743 5743 5743 5744 5745 5746 5746 5747 5747 5748 5748 5749 5749 5750 5750 5750 5751 5751 5752 5753 5754 5754 5754 5755 5757 5759 5761 5764 5767 5767 5768 5770 5771
5724 5725 5726 5726 5727 5727 5728 5729 5729 5730 5730 5731 5732 5732 5733 5733 5733 5734 5734 5734 5734 5735 5736 5736 5737 5737 5737 5738 5738 5739 5739 5739 5739 5739 5740 5741 5741 5742 5742 5743 5743 5744 5744 5744 5745 5745 5745 5745 5746 5746 5747 5749 5749 5749 5751 5752 5754 5757 5759 5760 5762 5764 5765
5719 5720 5721 5722 5723 5723 5724 5724 5725 5725 5726 5726 5727 5727 5728 5728 5728 5729 5729 5730 5730 5730 5731 5731 5732 5732 5732 5732 5733 5733 5734 5734 5735 5735 5735 5735 5736 5736 5737 5737 5738 5738 5739 5739 5739 5740 5740 5740 5740 5740 5740 5742 5743 5744 5745 5745 5747 5751 5753 5754 5756 5757 5758
5715 5716 5717 5717 5718 5718 5719 5720 5720 5721 5721 5721 5722 5722 5722 5723 5723 5724 5724 5725 5725 5725 5726 5726 5726 5726 5727 5727 5727 5728 5729 5729 5729 5730 5730 5730 5731 5731 5731 5731 5731 5732 5733 5734 5734 5734 5734 5734 5734 5734 5734 5735 5736 5738 5738 5738 5740 5745 5747 5747 5749 5751 5751
5712 5712 5712 5713 5713 5714 5714 5715 5715 5716 5716 5716 5717 5717 5717 5718 5718 5718 5719 5719 5719 5720 5720 5720 5720 5721 5721 5721 5722 5722 5723 5724 5724 5724 5724 5725 5725 5726 5726 5726 5725 5725 5726 5728 5728 5728 5729 5728 5729 5729 5728 5728 5729 5731 5731 5731 5732 5736 5740 5740 5740 5743 5744
5708 5708 5708 5708 5708 5709 5709 5710 5710 5711 5711 5711 5712 5712 5712 5713 5713 5713 5713 5713 5714 5714 5714 5714 5714 5714 5715 5715 5715 5716 5716 5717 5717 5718 5718 5718 5718 5719 5720 5721 5720 5719 5720 5721 5721 5722 5722 5722 5722 5723 5723 5722 5723 5723 5724 5724 5724 5727 5733 5735 5733 5734 5735
5704 5704 5704 5704 5704 5704 5705 5705 5706 5706 5706 5706 5707 5707 5707 5707 5707 5707 5708 5708 5708 5708 5708 5708 5708 5708 5708 5709 5709 5709 5709 5710 5710 5711 5711 5711 5711 5712 5713 5714 5714 5714 5714 5714 5714 5714 5714 5715 5716 5716 5717 5717 5717 5717 5716 5716 5717 5719 5724 5727 5727 5727 5728
5699 5699 5699 5700 5700 5700 5700 5701 5701 5701 5701 5701 5702 5702 5702 5702 5702 5702 5702 5702 5702 5702 5702 5702 5702 5702 5702 5702 5702 5702 5702 5702 5703 5703 5704 5704 5704 5705 5705 5706 5706 5707 5708 5708 5708 5707 5707 5707 5708 5709 5710 5710 5710 5711 5710 5710 5710 5712 5715 5719 5720 5720 5721
5694 5694 5694 5695 5695 5695 5696 5696 5696 5696 5696 5696 5697 5697 5697 5697 5697 5697 5697 5697 5697 5696 5696 5696 5695 5695 5695 5695 5695 5695 5695 5695 5696 5696 5696 5696 5696 5697 5697 5698 5698 5698 5700 5701 5701 5700 5700 5700 5700 5701 5702 5702 5702 5703 5704 5704 5704 5704 5706 5709 5712 5713 5714
5689 5689 5689 5689 5689 5690 5690 5690 5691 5691 5691 5691 5692 5692 5692 5692 5692 5692 5691 5691 5691 5690 5690 5689 5689 5689 5688 5688 5688 5688 5688 5688 5688 5688 5688 5688 5688 5689 5689 5690 5690 5690 5691 5692 5693 5693 5693 5693 5693 5693 5694 5695 5695 5695 5696 5697 5698 5697 5698 5700 5704 5706 5707
5684 5683 5683 5683 5684 5684 5684 5685 5685 5686 5686 5686 5686 5687 5687 5687 5687 5686 5686 5686 5685 5685 5684 5683 5683 5682 5682 5681 5681 5681 5681 5681 5681 5681 5681 5681 5681 5681 5681 5681 5682 5682 5683 5683 5684 5685 5685 5686 5686 5686 5686 5687 5687 5688 5688 5690 5690 5691 5691 5692 5695 5697 5699
5679 5678 5678 5678 5678 5679 5679 5679 5680 5680 5681 5681 5681 5681 5681 5681 5681 5681 5681 5680 5680 5679 5679 5678 5677 5677 5676 5675 5674 5674 5674 5674 5674 5673 5673 5673 5673 5673 5673 5673 5673 5674 5674 5675 5675 5676 5677 5677 5678 5679 5679 5679 5680 5681 5681 5682 5682 5683 5684 5685 5687 5689 5691
5673 5673 5673 5672 5673 5674 5674 5674 5674 5675 5675 5675 5676 5676 5676 5676 5676 5676 5676 5675 5675 5674 5673 5672 5672 5671 5670 5669 5669 5668 5667 5667 5666 5666 5666 5666 5665 5665 5665 5665 5665 5665 5665 5666 5667 5667 5667 5668 5669 5671 5671 5671 5672 5673 5674 5675 5675 5675 5676 5678 5680 5681 5682
5667 5667 5667 5666 5667 5668 5669 5669 5669 5669 5669 5670 5670 5670 5671 5671 5671 5671 5670 5670 5670 5669 5668 5667 5666 5665 5664 5663 5663 5662 5661 5660 5659 5659 5659 5658 5658 5657 5657 5657 5657 5657 5657 5657 5658 5658 5658 5659 5660 5662 5663 5663 5663 5664 5666 5668 5668 5668 5668 5671 5673 5674 5674
5662 5661 5660 5661 5661 5662 5663 5664 5664 5664 5664 5664 5664 5665 5665 5665 5665 5665 5665 5665 5664 5663 5663 5661 5660 5659 5658 5656 5656 5655 5654 5653 5652 5651 5651 5651 5651 5650 5649 5649 5649 5649 5649 5649 5648 5649 5649 5650 5650 5652 5653 5655 5655 5656 5657 5659 5661 5661 5661 5663 5665 5667 5668
5656 5655 5655 5655 5655 5656 5657 5658 5658 5658 5658 5658 5658 5658 5659 5659 5659 5659 5659 5659 5659 5658 5657 5656 5654 5653 5652 5650 5649 5648 5647 5646 5645 5644 5643 5642 5642 5642 5641 5641 5640 5640 5640 5640 5639 5639 5640 5640 5641 5642 5643 5645 5646 5647 5648 5650 5653 5654 5654 5655 5657 5659 5661
5649 5649 5648 5648 5649 5650 5651 5651 5652 5652 5652 5652 5652 5652 5653 5653 5653 5653 5653 5653 5653 5652 5651 5650 5648 5647 5646 5644 5642 5640 5639 5638 5636 5635 5634 5633 5633 5632 5632 5632 5632 5632 5631 5631 5630 5630 5630 5630 5631 5632 5633 5634 5637 5639 5639 5641 5643 5645 5646 5647 5649 5652 5654
5643 5643 5642 5642 5643 5644 5645 5645 5646 5646 5647 5646 5646 5647 5647 5647 5647 5647 5647 5647 5647 5646 5645 5643 5642 5641 5639 5638 5635 5633 5631 5629 5628 5627 5625 5624 5623 5622 5622 5622 5622 5622 5622 5621 5621 5620 5620 5620 5621 5622 5623 5624 5627 5629 5630 5632 5633 5635 5637 5639 5641 5645 5647
5637 5637 5638 5638 5639 5639 5640 5640 5641 5641 5641 5641 5641 5641 5641 5641 5641 5641 5641 5641 5640 5640 5638 5636 5635 5634 5632 5630 5628 5626 5623 5621 5620 5618 5616 5615 5613 5613 5612 5612 5612 5612 5612 5612 5611 5610 5610 5610 5610 5611 5613 5614 5617 5619 5621 5623 5623 5624 5627 5630 5633 5636 5639
5630 5631 5632 5633 5634 5634 5635 5635 5636 5636 5636 5635 5635 5635 5635 5635 5635 5635 5635 5635 5634 5633 5632 5629 5628 5626 5624 5622 5620 5618 5615 5613 5611 5609 5608 5606 5604 5603 5602 5601 5601 5601 5602 5602 5601 5600 5600 5599 5599 5601 5602 5604 5606 5608 5611 5613 5613 5614 5617 5620 5623 5627 5631
5623 5623 5625 5627 5628 5629 5630 5630 5630 5630 5630 5629 5630 5629 5629 5629 5629 5629 5628 5628 5628 5626 5625 5622 5620 5618 5616 5613 5611 5609 5606 5604 5602 5600 5599 5597 5595 5594 5592 5591 5591 5591 5591 5591 5590 5590 5589 5588 5589 5590 5592 5594 5595 5598 5601 5603 5603 5605 5607 5609 5613 5618 5621
5615 5616 5618 5620 5622 5623 5624 5624 5624 5624 5624 5624 5624 5624 5623 5623 5623 5623 5622 5622 5621 5619 5617 5615 5612 5610 5607 5604 5602 5599 5597 5595 5593 5591 5589 5588 5586 5584 5583 5582 5581 5580 5580 5579 5578 5578 5578 5577 5578 5580 5581 5583 5584 5588 5591 5592 5593 5596 5598 5599 5603 5607 5611
5608 5610 5612 5614 5616 5617 5618 5618 5618 5618 5618 5619 5619 5618 5618 5617 5617 5616 5616 5615 5613 5612 5610 5607 5604 5601 5598 5595 5592 5590 5587 5585 5584 5582 5580 5579 5577 5576 5574 5573 5571 5569 5569 5568 5567 5566 5566 5566 5567 5569 5571 5572 5575 5578 5580 5581 5583 5586 5587 5589 5593 5596 5601
5602 5603 5606 5608 5610 5612 5612 5612 5613 5613 5613 5613 5613 5612 5612 5611 5611 5610 5609 5608 5606 5603 5601 5599 5596 5592 5589 5586 5583 5580 5577 5575 5574 5572 5571 5569 5568 5566 5564 5562 5561 5559 5557 5556 5555 5555 5555 5555 5556 5558 5560 5562 5565 5569 5570 5570 5573 5575 5577 5580 5583 5586 5591
5596 5598 5600 5603 5605 5606 5606 5606 5607 5607 5607 5607 5607 5606 5606 5606 5605 5604 5602 5600 5598 5595 5592 5590 5587 5583 5580 5577 5574 5570 5568 5566 5563 5562 5561 5559 5557 5556 5554 5552 5550 5548 5546 5545 5544 5543 5544 5544 5545 5547 5550 5552 5555 5557 5558 5560 5562 5564 5566 5570 5573 5576 5581
5592 5594 5595 5597 5599 5599 5599 5600 5600 5601 5601 5601 5601 5601 5600 5600 5599 5598 5595 5592 5590 5587 5583 5580 5577 5574 5571 5568 5565 5561 5559 5556 5554 5551 5550 5549 5547 5546 5544 5542 5540 5538 5536 5534 5533 5533 5534 5534 5535 5537 5539 5541 5543 5545 5547 5549 5552 5553 5556 5560 5563 5567 5573
5587 5589 5590 5592 5593 5592 5593 5593 5594 5595 5596 5596 5596 5596 5595 5594 5592 5590 5588 5585 5582 5579 5576 5572 5569 5565 5562 5559 5556 5553 5550 5547 5544 5541 5539 5539 5537 5536 5535 5533 5530 5528 5526 5524 5524 5524 5524 5524 5525 5527 5529 5530 5532 5534 5536 5538 5541 5543 5546 5550 5553 5558 5564
5583 5584 5585 5587 5587 5586 5587 5588 5589 5590 5591 5591 5591 5589 5588 5587 5585 5583 5580 5578 5575 5572 5568 5565 5561 5558 5554 5552 5548 5545 5542 5539 5535 5532 5530 5529 5528 5526 5525 5522 5520 5518 5516 5515 5515 5514 5514 5515 5516 5517 5519 5520 5521 5523 5525 5528 5532 5534 5536 5540 5544 5549 5556
Wind_Speed
25 25 25 25 25 25 25 25 25 24 23 23 23 22 22 22 23 23 23 23 23 24 24 25 25 25 26 26 26 26 26 27 28 29 29 31 32 33 34 34 32 33 34 34 39 45 45 45 47 47 45 44 43 41 40 40 40 40 40 40 41 41 41
24 25 25 25 25 25 26 26 26 26 25 24 23 22 22 22 22 23 23 23 23 23 24 24 25 25 25 25 25 26 26 27 27 27 28 29 30 31 33 35 34 34 35 34 36 41 44 46 48 49 50 48 46 43 42 42 42 41 41 41 41 41 41
24 25 26 26 26 25 26 26 26 26 26 26 25 23 23 22 22 23 23 23 24 24 24 24 25 25 25 25 26 26 26 27 27 27 27 28 29 30 31 33 34 35 36 36 36 37 41 44 46 50 52 52 50 48 46 45 45 45 44 43 42 42 41
24 25 26 26 26 25 25 26 26 26 26 27 26 26 25 24 23 23 23 24 24 25 25 25 25 26 26 27 27 27 27 28 28 28 28 28 29 29 30 31 33 34 35 36 37 38 40 41 41 45 51 53 52 51 50 48 48 48 47 46 45 44 44
23 24 25 26 26 26 26 26 26 26 26 26 27 27 27 26 25 25 24 24 24 25 26 27 27 27 27 28 28 28 28 29 29 29 29 29 30 30 30 31 31 33 34 35 36 38 40 40 39 41 46 52 53 52 51 50 49 48 48 47 47 47 48
23 23 24 25 26 27 27 26 26 26 27 27 27 27 27 27 27 27 26 26 25 26 26 27 28 29 29 29 29 29 30 30 30 30 30 30 31 32 32 32 32 32 34 34 35 37 39 40 40 39 41 47 52 53 53 53 52 51 50 47 46 46 47
23 22 23 24 25 26 26 27 27 26 27 27 28 28 28 28 27 27 27 27 27 27 27 27 28 29 30 30 30 30 30 31 31 31 31 31 32 33 33 34 34 34 34 35 36 37 38 39 40 40 40 44 49 51 53 54 53 53 52 50 49 48 46
22 22 22 23 24 25 26 26 27 27 27 27 28 28 29 29 29 28 28 28 28 28 28 28 29 29 30 31 31 32 31 31 32 32 32 32 33 34 35 36 36 36 37 37 38 39 39 40 40 41 41 43 46 49 51 52 52 52 50 50 52 52 50
22 22 22 23 24 25 26 26 26 27 27 27 27 28 29 29 30 30 30 31 30 30 30 30 30 30 31 31 32 33 33 33 33 33 33 34 34 35 36 37 38 38 39 40 41 41 41 41 41 41 42 44 46 47 49 50 52 50 48 48 50 51 52
24 24 23 24 25 26 27 27 27 27 28 28 29 29 30 30 31 32 33 34 34 34 34 33 33 33 33 33 33 34 34 35 36 36 36 36 37 37 37 38 39 40 41 41 42 43 43 43 43 43 43 45 47 48 49 50 51 50 50 50 50 49 50
27 27 26 26 27 28 28 28 28 29 29 29 30 30 31 31 32 33 33 34 35 36 36 36 36 36 36 36 36 36 36 36 37 38 39 40 40 40 41 41 41 41 42 43 43 44 45 45 46 46 45 46 47 49 50 51 51 51 51 52 52 52 52
30 29 29 29 29 30 30 30 30 30 30 30 31 31 32 33 33 34 34 35 36 36 37 38 38 38 39 39 39 39 39 39 39 39 40 41 42 43 44 44 44 44 44 44 45 46 46 47 48 48 49 48 49 50 51 53 53 51 50 52 52 53 54
31 31 31 31 31 31 32 32 31 31 31 32 32 33 34 35 36 36 37 37 37 38 38 39 40 40 41 41 41 41 42 42 41 41 41 42 43 44 45 46 46 46 46 46 46 47 48 49 50 50 51 51 51 51 52 54 54 52 51 53 53 52 54
29 30 31 32 33 33 33 32 32 32 32 32 32 33 34 35 36 37 38 38 39 39 40 41 41 42 43 43 44 44 44 43 44 44 43 43 43 44 45 46 48 48 48 48 48 49 49 50 51 52 53 54 53 53 54 55 56 54 52 53 54 52 53
28 29 30 31 31 31 31 31 31 31 31 31 31 32 33 34 35 36 37 38 39 40 41 42 43 44 45 46 46 47 47 46 46 46 46 46 46 46 45 46 48 49 50 50 50 50 51 52 53 53 54 55 55 56 56 57 58 57 53 52 54 54 54
29 30 30 30 30 29 29 29 29 29 29 30 31 32 33 34 35 36 37 39 40 41 42 43 45 46 47 48 48 49 49 50 49 49 48 48 48 49 48 48 48 49 50 52 53 53 53 53 54 54 55 56 57 57 58 58 59 59 55 52 54 56 55
32 32 32 32 31 30 29 29 29 30 30 31 32 33 34 35 36 37 38 39 40 42 43 44 45 47 48 49 50 51 51 52 52 52 51 51 51 51 51 51 51 51 51 52 53 55 56 56 56 56 56 57 58 58 59 60 59 59 58 55 55 56 56
36 35 35 35 33 31 30 30 31 32 33 33 34 34 35 36 36 37 37 39 40 41 42 44 45 46 48 49 50 51 52 53 53 54 54 54 53 53 53 53 53 53 54 53 54 55 57 58 58 58 58 58 59 59 60 60 60 60 60 58 56 56 57
38 38 37 37 35 33 32 33 34 34 34 34 35 35 35 35 36 37 37 38 39 40 41 42 43 44 45 47 49 50 51 53 53 54 54 55 55 55 55 55 54 54 55 55 55 55 56 58 59 60 60 59 59 60 60 60 60 61 61 59 57 57 58
40 40 39 38 37 35 34 35 35 35 35 35 35 35 35 36 36 37 37 37 38 38 39 40 41 42 43 45 46 48 49 51 52 53 54 54 55 56 56 56 56 55 55 56 56 56 57 58 59 61 62 61 60 60 61 60 60 60 61 61 59 57 58
42 42 40 40 39 37 37 37 36 36 35 35 35 35 35 36 36 37 37 37 38 38 39 40 41 42 43 44 46 47 48 49 51 52 53 54 55 55 56 56 56 56 56 57 57 57 58 58 59 60 61 62 62 61 61 61 61 61 61 61 61 59 58
41 42 42 42 42 40 39 38 37 37 36 35 35 35 35 36 36 37 37 38 38 38 38 38 39 41 42 44 46 47 48 50 50 51 52 53 54 55 56 56 57 57 57 57 58 58 58 58 59 59 61 62 63 62 61 61 62 62 62 61 60 60 59
40 40 42 44 44 43 41 40 38 37 36 36 36 35 35 36 37 37 38 38 38 37 37 38 39 41 43 44 46 47 49 50 52 52 53 53 54 55 56 57 57 57 57 58 58 59 59 59 60 60 60 61 63 63 62 62 61 62 63 62 60 59 60
41 43 45 45 44 44 43 41 40 39 38 37 37 37 36 36 37 38 38 39 39 38 39 40 42 43 45 46 47 48 50 51 53 54 54 54 55 55 56 57 57 58 58 58 59 59 60 60 60 61 61 61 62 64 64 63 62 62 63 63 62 60 60
44 48 50 50 47 45 43 42 41 41 40 39 39 38 38 37 38 39 40 41 41 41 42 44 46 48 49 50 51 52 53 53 54 55 56 57 57 57 57 58 58 59 59 59 59 60 60 61 61 61 62 61 62 63 64 64 63 62 63 64 63 62 61
47 48 53 55 53 47 44 44 44 43 42 41 41 40 39 38 39 40 42 42 42 43 45 47 50 51 52 53 54 56 57 57 56 56 57 57 58 59 59 59 59 60 60 60 61 61 61 62 62 62 63 63 62 63 64 65 65 64 63 64 64 62 61
51 49 51 52 52 50 46 46 45 44 43 43 42 41 40 40 41 42 43 42 43 45 48 50 52 53 54 55 56 59 61 61 59 57 57 58 59 59 60 61 60 60 61 61 62 63 63 63 63 63 64 64 63 63 64 64 65 65 65 64 64 63 61
54 52 50 48 47 45 45 45 45 45 44 43 42 42 41 41 42 43 43 44 45 47 49 52 54 55 56 57 59 61 63 63 61 59 59 59 59 60 60 61 61 61 61 61 62 63 64 65 65 65 65 64 64 64 64 64 65 66 66 65 65 64 61
53 52 52 51 47 44 43 44 45 44 44 43 43 42 42 42 43 44 45 46 47 48 51 53 55 57 58 60 62 63 63 62 60 59 59 60 61 61 61 62 62 62 61 61 61 62 63 65 66 66 66 65 65 65 65 65 66 67 67 67 66 64 62
50 52 53 53 53 51 47 44 44 44 44 43 43 43 43 43 44 45 46 47 48 49 52 54 57 58 60 62 63 63 62 60 59 59 59 60 60 60 61 61 61 62 62 62 62 62 63 64 65 66 66 66 66 66 65 65 66 67 67 67 66 64 63
51 52 52 51 51 51 48 44 43 43 43 43 43 43 43 43 44 46 47 47 49 50 53 55 58 60 62 63 63 62 60 59 59 58 57 56 56 56 56 57 58 59 60 61 62 62 63 64 65 65 65 66 66 66 65 66 66 66 67 68 67 65 64
53 54 52 50 49 47 44 42 42 43 43 43 43 43 43 44 45 45 46 48 50 52 54 57 60 62 62 62 61 60 59 58 56 54 53 52 52 53 53 54 55 57 58 59 60 61 62 64 64 64 65 65 65 65 65 66 66 66 67 67 67 67 65
52 55 55 53 49 43 40 40 42 43 44 44 44 44 44 44 44 45 47 50 52 54 57 59 61 62 61 60 60 58 57 55 53 52 52 53 53 53 54 55 56 57 59 60 61 62 62 63 63 63 63 64 64 64 65 66 66 67 67 67 67 67 66
41 46 49 49 48 45 44 45 45 45 46 45 45 45 43 43 44 46 49 51 54 57 59 61 61 61 60 59 57 56 54 54 54 55 54 54 54 53 52 53 53 54 57 58 60 62 62 62 62 61 61 61 61 62 64 65 66 67 68 67 67 67 65
39 38 39 41 44 47 50 50 48 47 47 46 45 44 42 43 44 47 50 53 56 58 59 60 60 59 58 57 55 54 54 56 58 58 56 53 50 49 48 49 51 53 56 57 58 59 59 60 60 59 58 58 59 60 62 64 65 67 68 67 68 67 65
44 40 39 40 42 46 48 48 48 48 47 46 44 43 42 44 46 48 51 54 56 57 57 58 58 57 56 54 54 55 57 58 59 58 54 49 48 48 49 51 53 55 57 58 58 58 57 57 57 56 56 56 56 57 59 61 63 65 67 67 68 67 64
45 43 44 43 42 43 45 46 46 47 46 44 43 42 43 45 47 50 52 54 54 55 55 56 55 54 54 54 56 57 59 58 57 55 52 50 50 49 49 49 50 51 51 51 52 53 54 54 54 54 54 54 55 56 57 58 60 63 65 66 67 66 64
Wind_Direction
259 259 258 258 259 259 259 258 257 256 255 254 252 251 250 250 251 250 249 245 242 241 240 241 242 243 245 247 248 249 250 250 249 248 245 244 244 243 245 248 249 249 252 251 245 240 241 242 243 245 245 244 242 241 241 242 242 243 244 244 245 246 248
257 257 256 255 255 257 258 258 259 258 257 255 254 253 251 251 251 251 252 252 250 247 246 245 245 246 247 248 249 250 251 252 253 253 251 250 248 247 248 249 250 250 250 252 249 244 243 244 243 243 243 244 243 242 242 243 243 244 245 245 246 246 248
255 255 256 255 254 253 255 257 259 260 261 259 258 256 254 253 251 251 251 252 252 252 252 250 249 250 250 251 251 252 253 254 255 256 255 254 253 251 251 251 252 252 252 252 250 247 246 246 246 243 241 242 243 243 243 244 245 246 245 245 246 246 247
252 252 254 256 255 254 254 255 257 260 262 263 263 262 261 258 256 253 251 250 250 250 251 252 252 251 252 253 254 254 254 255 255 256 256 256 256 255 254 254 254 254 255 254 253 252 251 251 251 245 240 240 242 243 244 245 246 246 247 246 246 246 247
252 251 252 254 256 255 255 254 255 257 259 262 265 266 267 266 264 261 258 255 252 250 249 250 251 252 252 252 253 254 255 256 257 257 257 257 258 258 257 257 257 257 258 257 255 255 255 254 254 250 242 240 242 242 243 245 245 245 247 247 248 249 249
254 252 252 254 256 257 257 257 257 257 259 261 263 265 267 268 269 268 266 262 259 255 252 250 250 251 252 253 253 253 254 255 257 258 258 259 259 260 260 260 259 259 260 260 258 257 257 256 255 253 247 243 243 243 243 245 245 245 247 247 248 250 250
256 255 253 254 256 258 259 261 261 262 262 263 263 264 265 266 267 267 268 266 264 260 257 254 252 251 252 253 254 255 255 255 256 257 258 259 260 261 262 262 261 261 261 261 260 259 259 258 257 255 251 247 246 246 246 247 248 248 248 248 248 249 250
255 255 254 254 255 257 258 260 262 263 263 264 264 264 264 264 264 263 264 264 264 263 261 259 256 254 253 253 254 256 256 257 257 258 258 259 260 262 263 263 264 263 263 263 262 262 261 261 260 258 255 251 249 248 248 249 250 250 250 250 250 250 250
253 254 254 254 254 255 255 256 257 259 260 261 262 263 263 263 263 263 262 262 261 261 261 261 260 259 257 256 256 256 257 258 259 259 260 261 261 262 263 264 265 265 265 265 265 265 264 263 261 259 258 256 254 251 250 250 251 252 252 253 253 253 253
253 252 252 253 253 254 255 255 256 256 258 259 260 262 263 263 264 264 264 263 262 262 261 260 261 261 261 260 259 259 259 260 261 261 261 262 263 264 264 264 265 265 266 266 266 266 266 265 263 261 259 258 258 256 254 253 252 252 252 252 252 253 254
253 253 252 252 253 253 255 255 256 257 258 259 260 261 262 264 264 265 266 266 266 265 265 264 264 263 263 262 261 261 260 261 262 263 263 263 263 264 265 265 264 265 265 265 266 266 266 266 265 264 261 259 259 258 258 257 255 254 252 252 251 252 252
255 256 256 256 255 254 256 256 257 258 259 260 260 261 262 263 264 266 267 268 269 269 269 268 268 267 266 264 263 262 261 260 261 262 262 263 264 264 265 265 265 264 264 264 265 265 265 265 265 265 264 262 260 259 259 259 258 256 255 254 253 252 252
259 259 259 259 258 257 257 258 259 259 259 260 261 262 263 263 264 266 267 268 269 270 270 270 269 269 268 266 265 264 263 262 261 261 261 262 263 264 265 265 266 265 264 264 264 264 264 264 265 265 265 264 262 261 261 260 259 258 258 258 256 255 255
263 261 260 260 259 258 258 259 260 261 261 262 263 264 265 265 266 267 268 269 270 270 271 271 270 270 269 268 267 266 265 264 263 263 262 262 261 262 263 265 266 267 266 265 264 264 263 263 264 264 264 265 264 263 262 262 261 259 258 260 260 258 257
267 265 263 261 260 260 260 261 262 263 264 265 266 267 267 268 269 269 270 270 271 271 271 271 271 271 270 270 269 269 268 267 266 265 265 264 263 262 262 262 263 265 267 267 266 264 263 263 263 263 263 264 264 264 264 263 263 261 259 260 261 260 258
269 268 265 263 262 262 263 264 265 265 267 269 270 271 271 272 272 272 273 273 272 272 272 272 272 272 271 271 271 270 270 269 269 268 267 267 266 266 264 262 261 262 263 265 266 265 264 263 262 262 262 262 263 264 264 264 264 263 261 259 260 260 259
268 268 267 267 265 264 265 267 268 268 270 274 275 276 276 276 275 275 275 275 275 275 275 274 274 273 273 272 272 271 271 270 270 270 269 268 267 267 266 265 263 262 261 261 262 264 264 263 262 261 261 261 262 262 263 264 264 264 263 260 258 259 259
266 265 266 267 266 264 265 268 270 271 273 276 279 280 279 279 279 279 280 280 280 279 279 278 277 276 275 274 273 272 272 271 270 270 270 269 268 267 266 266 265 264 263 261 259 260 261 262 262 262 261 260 261 261 261 262 263 264 263 261 259 258 259
263 263 263 265 264 261 263 267 269 270 273 277 281 282 281 281 282 283 284 284 284 283 283 282 281 280 279 278 276 275 273 272 271 270 270 269 269 267 266 265 265 264 264 262 260 258 258 259 260 261 261 260 260 260 260 261 262 263 263 262 260 258 257
261 261 262 263 261 259 260 264 265 267 272 276 281 282 282 283 284 285 285 285 286 286 286 285 285 284 283 282 280 279 277 275 273 271 270 269 269 268 267 266 265 264 263 262 261 259 258 257 257 258 259 259 259 259 260 260 260 261 261 261 260 258 256
261 260 262 263 261 258 258 260 262 265 270 275 279 281 281 283 284 284 285 285 286 287 287 287 287 287 286 285 284 282 281 279 277 275 273 271 270 269 268 267 266 265 263 262 261 260 259 257 256 255 256 257 258 258 258 259 259 259 260 260 260 259 258
259 259 261 262 260 258 257 257 259 263 267 272 276 278 279 281 282 282 284 285 286 287 288 289 289 289 288 287 286 285 283 282 280 279 277 275 273 271 269 267 267 266 265 263 262 261 260 258 256 255 254 255 256 256 256 257 257 258 258 259 259 259 259
255 257 260 260 258 257 256 256 258 260 264 268 271 273 275 276 278 280 281 283 283 284 286 288 290 291 291 290 289 288 286 284 282 280 278 276 275 273 271 269 268 267 266 265 263 262 261 260 258 256 254 254 254 255 255 255 255 256 257 257 257 258 258
259 261 261 260 257 255 255 255 257 259 261 265 267 268 269 272 275 276 279 280 279 280 283 287 289 291 292 293 292 291 290 288 284 281 279 277 275 273 272 271 269 268 267 266 265 263 262 261 260 258 256 254 254 254 253 253 253 254 255 256 256 256 257
265 265 264 263 258 254 254 254 256 257 259 261 263 263 266 269 272 273 276 277 275 276 281 285 288 290 292 292 293 293 294 292 288 284 280 277 275 273 272 271 269 268 267 266 265 264 263 262 261 259 257 255 254 253 253 253 252 252 253 254 254 255 255
267 270 271 266 256 253 254 254 255 256 256 258 259 261 264 268 269 271 274 275 274 275 280 284 286 288 289 291 292 293 295 294 291 287 283 279 277 274 272 271 269 268 267 266 265 264 263 262 261 260 258 256 255 253 252 252 252 251 251 252 252 253 254
263 269 274 267 256 253 255 254 254 254 254 255 257 259 263 266 267 270 273 274 274 277 281 284 285 287 289 290 292 293 294 294 291 287 284 281 278 276 274 272 270 269 267 266 265 264 263 262 261 260 258 257 255 254 253 252 252 252 251 250 250 251 251
262 264 270 269 260 255 255 254 253 253 254 255 256 259 262 264 266 269 272 273 276 279 282 284 285 287 289 291 292 293 294 292 289 285 283 281 279 278 276 274 272 270 269 267 266 264 263 262 261 260 258 257 256 255 253 252 252 252 251 250 250 249 249
264 264 266 266 263 261 259 255 253 254 255 255 257 259 262 265 267 270 272 274 277 280 282 284 286 288 290 291 292 293 293 289 285 282 281 280 279 278 276 275 273 272 270 268 267 265 263 262 261 260 258 257 256 254 253 253 252 252 251 251 250 249 248
263 264 265 264 264 267 265 257 254 256 256 256 258 261 264 267 269 271 273 276 279 281 283 285 287 289 290 291 291 291 290 286 283 282 281 280 279 277 276 275 274 272 271 269 267 265 263 262 260 259 258 257 256 254 253 253 252 252 251 251 250 249 248
260 263 266 265 264 267 265 259 257 259 259 259 261 263 266 269 270 273 276 278 280 282 284 286 288 289 290 291 290 288 287 285 284 283 281 280 279 277 276 275 273 272 271 269 267 265 263 262 260 259 257 256 256 255 253 252 252 252 252 251 250 249 248
257 261 265 266 265 265 262 260 260 262 262 263 264 266 268 270 273 276 278 279 281 284 286 288 289 291 291 290 289 288 288 286 285 283 281 280 278 277 276 274 273 271 270 268 267 265 264 262 261 259 257 256 255 254 254 253 251 251 251 251 250 248 247
256 258 263 265 262 259 259 262 263 263 264 264 266 267 269 272 276 278 280 282 285 287 288 290 291 291 291 290 290 290 289 287 284 283 282 282 280 278 276 274 272 270 269 267 266 264 263 263 262 260 258 256 254 253 252 252 251 250 249 249 249 249 247
256 258 261 262 258 257 263 268 266 263 263 265 267 269 271 275 278 280 283 286 288 289 290 291 292 292 292 292 291 290 288 287 286 285 285 284 282 279 276 273 272 270 269 267 265 264 263 263 262 261 259 258 255 252 250 250 250 250 249 248 248 248 247
258 263 263 262 260 261 265 267 264 261 262 266 269 271 274 277 279 283 286 288 290 291 292 292 293 293 293 293 291 289 289 289 289 288 287 284 281 277 275 274 273 271 269 268 266 266 265 264 263 262 260 258 256 253 250 248 248 248 248 247 247 246 246
260 267 268 267 265 263 263 262 260 259 262 267 270 272 275 279 282 285 288 289 291 292 293 294 294 294 293 292 291 290 290 290 290 289 287 283 280 279 279 278 275 272 270 269 268 267 266 264 263 262 260 258 256 253 250 247 246 246 246 246 245 244 243
258 265 267 267 266 264 263 260 257 258 263 268 271 274 278 282 285 288 289 291 293 294 295 295 294 293 292 292 292 292 291 291 290 288 285 284 284 284 282 278 275 274 272 270 268 267 265 264 263 261 259 257 255 252 249 247 245 245 245 245 245 244 242